Time,TemperatureF,DewpointF,PressureIn,WindDirection,WindDirectionDegrees,WindSpeedMPH,WindSpeedGustMPH,Humidity,HourlyPrecipIn,Conditions,Clouds,dailyrainin,SoftwareType,DateUTC
2013-01-18 00:02:00,15.4,1.4,30.24,South,184,3.6,3.6,53,0.00,,---,0.00,VWS V14.01,2013-01-18 06:02:00,
2013-01-18 00:08:00,15.4,1.8,30.21,SE,146,4.0,4.0,54,0.00,,---,0.00,VWS V14.01,2013-01-18 06:08:00,
2013-01-18 00:13:00,15.4,1.8,30.21,SE,142,5.4,5.4,54,0.00,,---,0.00,VWS V14.01,2013-01-18 06:13:00,
2013-01-18 00:18:00,15.4,1.8,30.21,SE,143,5.4,5.4,54,0.00,,---,0.00,VWS V14.01,2013-01-18 06:18:00,
2013-01-18 00:23:00,15.6,2.0,30.21,SE,134,3.1,3.1,54,0.00,,---,0.00,VWS V14.01,2013-01-18 06:23:00,
2013-01-18 00:28:00,15.6,2.0,30.21,SE,131,3.6,4.0,54,0.00,,---,0.00,VWS V14.01,2013-01-18 06:28:00,
2013-01-18 00:34:00,15.4,1.8,30.21,ESE,122,5.4,5.4,54,0.00,,---,0.00,VWS V14.01,2013-01-18 06:34:00,
2013-01-18 00:40:00,15.4,2.2,30.21,SE,130,3.6,5.4,55,0.00,,---,0.00,VWS V14.01,2013-01-18 06:40:00,
2013-01-18 00:45:00,15.3,2.4,30.21,SE,134,4.9,5.4,56,0.00,,---,0.00,VWS V14.01,2013-01-18 06:45:00,
2013-01-18 00:50:00,15.1,2.6,30.21,SE,139,5.8,6.3,57,0.00,,---,0.00,VWS V14.01,2013-01-18 06:50:00,
2013-01-18 00:55:00,14.9,2.4,30.18,SE,130,4.0,4.5,57,0.00,,---,0.00,VWS V14.01,2013-01-18 06:55:00,
2013-01-18 01:00:00,14.9,2.8,30.18,SE,142,6.3,6.3,58,0.00,,---,0.00,VWS V14.01,2013-01-18 07:00:00,
2013-01-18 01:05:00,14.9,3.2,30.18,SE,141,6.3,6.3,59,0.00,,---,0.00,VWS V14.01,2013-01-18 07:05:00,
2013-01-18 01:11:00,14.9,3.2,30.18,SE,130,4.0,4.9,59,0.00,,---,0.00,VWS V14.01,2013-01-18 07:11:00,
2013-01-18 01:16:00,14.9,3.5,30.18,SE,132,4.0,5.8,60,0.00,,---,0.00,VWS V14.01,2013-01-18 07:16:00,
2013-01-18 01:22:00,14.9,3.5,30.18,ESE,113,5.8,8.7,60,0.00,,---,0.00,VWS V14.01,2013-01-18 07:22:00,
2013-01-18 01:27:00,14.9,3.5,30.15,ESE,105,7.2,7.2,60,0.00,,---,0.00,VWS V14.01,2013-01-18 07:27:00,
2013-01-18 01:32:00,14.7,3.4,30.15,ESE,105,8.7,8.7,60,0.00,,---,0.00,VWS V14.01,2013-01-18 07:32:00,
2013-01-18 01:37:00,14.5,3.5,30.15,ESE,107,5.4,6.3,61,0.00,,---,0.00,VWS V14.01,2013-01-18 07:37:00,
2013-01-18 01:43:00,14.5,3.5,30.15,ESE,114,5.4,8.3,61,0.00,,---,0.00,VWS V14.01,2013-01-18 07:43:00,
2013-01-18 01:48:00,14.7,4.1,30.15,ESE,120,8.1,8.1,62,0.00,,---,0.00,VWS V14.01,2013-01-18 07:48:00,
2013-01-18 01:53:00,14.9,4.2,30.15,SE,125,5.4,8.1,62,0.00,,---,0.00,VWS V14.01,2013-01-18 07:53:00,
2013-01-18 01:58:00,14.9,4.6,30.15,ESE,111,6.3,8.3,63,0.00,,---,0.00,VWS V14.01,2013-01-18 07:58:00,
2013-01-18 02:03:00,14.9,4.6,30.15,ESE,112,11.0,11.0,63,0.00,,---,0.00,VWS V14.01,2013-01-18 08:03:00,
2013-01-18 02:08:00,14.9,4.6,30.12,ESE,110,7.6,7.6,63,0.00,,---,0.00,VWS V14.01,2013-01-18 08:08:00,
2013-01-18 02:14:00,15.1,5.1,30.12,ESE,109,4.9,7.6,64,0.00,,---,0.00,VWS V14.01,2013-01-18 08:14:00,
2013-01-18 02:19:00,15.1,5.4,30.12,ESE,113,7.6,8.7,65,0.00,,---,0.00,VWS V14.01,2013-01-18 08:19:00,
2013-01-18 02:24:00,15.1,5.4,30.12,ESE,106,7.6,7.6,65,0.00,,---,0.00,VWS V14.01,2013-01-18 08:24:00,
2013-01-18 02:29:00,15.1,5.8,30.12,ESE,108,7.6,10.1,66,0.00,,---,0.00,VWS V14.01,2013-01-18 08:29:00,
2013-01-18 02:35:00,15.3,6.3,30.12,ESE,113,8.1,8.7,67,0.00,,---,0.00,VWS V14.01,2013-01-18 08:35:00,
2013-01-18 02:40:00,15.4,6.5,30.12,ESE,106,7.6,7.6,67,0.00,,---,0.00,VWS V14.01,2013-01-18 08:40:00,
2013-01-18 02:46:00,15.3,6.6,30.12,ESE,110,7.2,10.1,68,0.00,,---,0.00,VWS V14.01,2013-01-18 08:46:00,
2013-01-18 02:51:00,15.4,7.1,30.12,ESE,122,10.5,10.5,69,0.00,,---,0.00,VWS V14.01,2013-01-18 08:51:00,
2013-01-18 02:57:00,15.4,7.1,30.09,ESE,113,4.9,8.1,69,0.00,,---,0.00,VWS V14.01,2013-01-18 08:57:00,
2013-01-18 03:02:00,15.8,7.4,30.09,SE,130,6.3,6.3,69,0.00,,---,0.00,VWS V14.01,2013-01-18 09:02:00,
2013-01-18 03:08:00,15.8,7.4,30.09,ESE,114,8.7,10.5,69,0.00,,---,0.00,VWS V14.01,2013-01-18 09:08:00,
2013-01-18 03:14:00,16.0,7.3,30.09,ESE,123,6.3,8.3,68,0.00,,---,0.00,VWS V14.01,2013-01-18 09:14:00,
2013-01-18 03:19:00,16.0,7.3,30.09,SE,127,8.1,8.1,68,0.00,,---,0.00,VWS V14.01,2013-01-18 09:19:00,
2013-01-18 03:25:00,16.0,7.3,30.06,SE,139,7.6,8.3,68,0.00,,---,0.00,VWS V14.01,2013-01-18 09:25:00,
2013-01-18 03:31:00,16.0,7.3,30.06,SE,135,6.3,10.5,68,0.00,,---,0.00,VWS V14.01,2013-01-18 09:31:00,
2013-01-18 03:36:00,16.0,7.3,30.06,SE,141,7.6,7.6,68,0.00,,---,0.00,VWS V14.01,2013-01-18 09:36:00,
2013-01-18 03:42:00,16.2,7.5,30.06,SE,124,5.8,8.3,68,0.00,,---,0.00,VWS V14.01,2013-01-18 09:42:00,
2013-01-18 03:47:00,16.2,7.5,30.06,SE,134,5.8,6.3,68,0.00,,---,0.00,VWS V14.01,2013-01-18 09:47:00,
2013-01-18 03:53:00,16.2,7.5,30.03,SE,134,6.3,7.6,68,0.00,,---,0.00,VWS V14.01,2013-01-18 09:53:00,
2013-01-18 03:58:00,16.3,7.6,30.03,SE,138,6.3,6.3,68,0.00,,---,0.00,VWS V14.01,2013-01-18 09:58:00,
2013-01-18 04:04:00,16.3,7.6,30.03,SE,136,7.6,8.7,68,0.00,,---,0.00,VWS V14.01,2013-01-18 10:04:00,
2013-01-18 04:10:00,16.3,7.6,30.03,SSE,149,8.7,8.7,68,0.00,,---,0.00,VWS V14.01,2013-01-18 10:10:00,
2013-01-18 04:15:00,16.3,7.6,30.03,SE,137,6.3,8.1,68,0.00,,---,0.00,VWS V14.01,2013-01-18 10:15:00,
2013-01-18 04:20:00,16.2,7.8,30.03,SE,142,8.7,10.5,69,0.00,,---,0.00,VWS V14.01,2013-01-18 10:20:00,
2013-01-18 04:25:00,16.2,7.8,30.00,SE,138,8.3,8.3,69,0.00,,---,0.00,VWS V14.01,2013-01-18 10:25:00,
2013-01-18 04:30:00,16.2,7.8,30.00,SE,145,8.7,8.7,69,0.00,,---,0.00,VWS V14.01,2013-01-18 10:30:00,
2013-01-18 04:35:00,16.2,7.8,30.00,SE,138,10.5,12.8,69,0.00,,---,0.00,VWS V14.01,2013-01-18 10:35:00,
2013-01-18 04:41:00,16.2,8.1,29.97,SE,144,11.9,11.9,70,0.00,,---,0.00,VWS V14.01,2013-01-18 10:41:00,
2013-01-18 04:46:00,16.2,8.1,29.97,SE,142,10.5,10.5,70,0.00,,---,0.00,VWS V14.01,2013-01-18 10:46:00,
2013-01-18 04:51:00,16.2,8.4,29.97,SSE,150,5.8,6.7,71,0.00,,---,0.00,VWS V14.01,2013-01-18 10:51:00,
2013-01-18 04:57:00,16.0,8.2,29.97,SE,140,4.9,8.3,71,0.00,,---,0.00,VWS V14.01,2013-01-18 10:57:00,
2013-01-18 05:03:00,16.0,8.2,29.97,SE,141,6.3,6.3,71,0.00,,---,0.00,VWS V14.01,2013-01-18 11:03:00,
2013-01-18 05:08:00,16.2,8.4,29.97,SE,132,7.6,7.6,71,0.00,,---,0.00,VWS V14.01,2013-01-18 11:08:00,
2013-01-18 05:14:00,16.2,8.4,29.97,SE,144,8.3,8.7,71,0.00,,---,0.00,VWS V14.01,2013-01-18 11:14:00,
2013-01-18 05:20:00,16.0,8.2,29.97,SE,141,8.1,8.1,71,0.00,,---,0.00,VWS V14.01,2013-01-18 11:20:00,
2013-01-18 05:25:00,16.0,8.2,29.94,SE,133,6.3,8.3,71,0.00,,---,0.00,VWS V14.01,2013-01-18 11:25:00,
2013-01-18 05:30:00,16.0,8.2,29.94,SE,133,7.6,7.6,71,0.00,,---,0.00,VWS V14.01,2013-01-18 11:30:00,
2013-01-18 05:35:00,15.8,8.1,29.94,SE,140,7.6,8.7,71,0.00,,---,0.00,VWS V14.01,2013-01-18 11:35:00,
2013-01-18 05:41:00,15.6,7.9,29.94,SE,138,5.4,6.3,71,0.00,,---,0.00,VWS V14.01,2013-01-18 11:41:00,
2013-01-18 05:46:00,15.4,7.7,29.94,SSE,147,6.3,7.6,71,0.00,,---,0.00,VWS V14.01,2013-01-18 11:46:00,
2013-01-18 05:51:00,15.6,7.9,29.94,SE,141,7.6,8.3,71,0.00,,---,0.00,VWS V14.01,2013-01-18 11:51:00,
2013-01-18 05:56:00,15.6,7.9,29.91,SE,130,8.1,8.1,71,0.00,,---,0.00,VWS V14.01,2013-01-18 11:56:00,
2013-01-18 06:02:00,16.0,8.2,29.91,SE,130,4.9,5.4,71,0.00,,---,0.00,VWS V14.01,2013-01-18 12:02:00,
2013-01-18 06:07:00,16.2,8.4,29.91,SE,136,5.8,5.8,71,0.00,,---,0.00,VWS V14.01,2013-01-18 12:07:00,
2013-01-18 06:12:00,16.5,8.8,29.91,SE,135,4.9,6.3,71,0.00,,---,0.00,VWS V14.01,2013-01-18 12:12:00,
2013-01-18 06:17:00,16.7,9.3,29.91,SE,127,4.0,5.4,72,0.00,,---,0.00,VWS V14.01,2013-01-18 12:17:00,
2013-01-18 06:23:00,16.7,8.9,29.91,ESE,122,4.9,4.9,71,0.00,,---,0.00,VWS V14.01,2013-01-18 12:23:00,
2013-01-18 06:28:00,16.5,8.8,29.91,SE,132,4.0,4.9,71,0.00,,---,0.00,VWS V14.01,2013-01-18 12:28:00,
2013-01-18 06:33:00,16.2,8.1,29.91,SE,130,4.9,6.3,70,0.00,,---,0.00,VWS V14.01,2013-01-18 12:33:00,
2013-01-18 06:38:00,16.0,7.9,29.88,SE,132,3.6,4.9,70,0.00,,---,0.00,VWS V14.01,2013-01-18 12:38:00,
2013-01-18 06:44:00,15.4,7.4,29.88,SE,124,5.4,5.4,70,0.00,,---,0.00,VWS V14.01,2013-01-18 12:44:00,
2013-01-18 06:49:00,15.4,7.1,29.88,SE,126,6.3,6.3,69,0.00,,---,0.00,VWS V14.01,2013-01-18 12:49:00,
2013-01-18 06:55:00,15.3,6.9,29.88,SE,129,5.8,6.3,69,0.00,,---,0.00,VWS V14.01,2013-01-18 12:55:00,
2013-01-18 07:00:00,15.3,6.9,29.88,SE,129,5.4,7.6,69,0.00,,---,0.00,VWS V14.01,2013-01-18 13:00:00,
2013-01-18 07:05:00,15.4,7.4,29.88,SE,129,4.0,4.0,70,0.00,,---,0.00,VWS V14.01,2013-01-18 13:05:00,
2013-01-18 07:10:00,15.4,7.4,29.85,SE,129,4.0,5.4,70,0.00,,---,0.00,VWS V14.01,2013-01-18 13:10:00,
2013-01-18 07:16:00,15.8,7.8,29.85,SE,129,3.6,4.0,70,0.00,,---,0.00,VWS V14.01,2013-01-18 13:16:00,
2013-01-18 07:21:00,16.2,8.1,29.85,SE,129,4.0,4.5,70,0.00,,---,0.00,VWS V14.01,2013-01-18 13:21:00,
2013-01-18 07:27:00,16.7,8.6,29.85,SE,129,0.0,0.0,70,0.00,,---,0.00,VWS V14.01,2013-01-18 13:27:00,
2013-01-18 07:33:00,17.1,9.3,29.85,SE,129,0.0,0.0,71,0.00,,---,0.00,VWS V14.01,2013-01-18 13:33:00,
2013-01-18 07:38:00,17.2,9.5,29.85,SE,129,2.7,3.6,71,0.00,,---,0.00,VWS V14.01,2013-01-18 13:38:00,
2013-01-18 07:43:00,17.4,9.6,29.85,SE,129,3.1,4.0,71,0.00,,---,0.00,VWS V14.01,2013-01-18 13:43:00,
2013-01-18 07:48:00,17.6,9.8,29.85,SE,129,3.1,3.1,71,0.00,,---,0.00,VWS V14.01,2013-01-18 13:48:00,
2013-01-18 07:54:00,18.0,10.2,29.82,SE,129,2.7,5.4,71,0.00,,---,0.00,VWS V14.01,2013-01-18 13:54:00,
2013-01-18 07:59:00,18.1,10.3,29.82,SE,129,0.0,4.0,71,0.00,,---,0.00,VWS V14.01,2013-01-18 13:59:00,
2013-01-18 08:05:00,18.5,10.7,29.82,SE,129,4.0,4.0,71,0.00,,---,0.00,VWS V14.01,2013-01-18 14:05:00,
2013-01-18 08:11:00,18.7,10.9,29.82,SE,129,5.4,5.4,71,0.00,,---,0.00,VWS V14.01,2013-01-18 14:11:00,
2013-01-18 08:16:00,19.0,11.2,29.82,SE,129,4.5,5.8,71,0.00,,---,0.00,VWS V14.01,2013-01-18 14:16:00,
2013-01-18 08:22:00,19.6,11.7,29.82,SE,129,3.6,4.9,71,0.00,,---,0.00,VWS V14.01,2013-01-18 14:22:00,
2013-01-18 08:27:00,19.9,12.1,29.82,SE,130,5.4,6.3,71,0.00,,---,0.00,VWS V14.01,2013-01-18 14:27:00,
2013-01-18 08:33:00,20.5,12.6,29.82,SE,131,5.4,5.4,71,0.00,,---,0.00,VWS V14.01,2013-01-18 14:33:00,
2013-01-18 08:39:00,21.2,13.3,29.82,SE,131,3.6,3.6,71,0.00,,---,0.00,VWS V14.01,2013-01-18 14:39:00,
2013-01-18 08:44:00,21.4,12.8,29.82,SE,131,4.0,4.0,69,0.00,,---,0.00,VWS V14.01,2013-01-18 14:44:00,
2013-01-18 08:50:00,21.6,13.0,29.82,SE,132,5.4,5.4,69,0.00,,---,0.00,VWS V14.01,2013-01-18 14:50:00,
2013-01-18 08:55:00,21.9,13.3,29.82,SE,131,0.0,0.0,69,0.00,,---,0.00,VWS V14.01,2013-01-18 14:55:00,
2013-01-18 09:00:00,22.3,13.3,29.82,SE,132,2.2,5.4,68,0.00,,---,0.00,VWS V14.01,2013-01-18 15:00:00,
2013-01-18 09:05:00,22.6,13.7,29.82,SE,132,2.7,2.7,68,0.00,,---,0.00,VWS V14.01,2013-01-18 15:05:00,
2013-01-18 09:10:00,23.0,14.0,29.82,SE,133,3.6,3.6,68,0.00,,---,0.00,VWS V14.01,2013-01-18 15:10:00,
2013-01-18 09:16:00,23.4,14.0,29.82,SE,133,2.7,3.6,67,0.00,,---,0.00,VWS V14.01,2013-01-18 15:16:00,
2013-01-18 09:21:00,23.7,14.4,29.82,SE,133,2.7,3.6,67,0.00,,---,0.00,VWS V14.01,2013-01-18 15:21:00,
2013-01-18 09:26:00,24.1,14.7,29.82,SE,133,3.6,3.6,67,0.00,,---,0.00,VWS V14.01,2013-01-18 15:26:00,
2013-01-18 09:31:00,24.4,14.7,29.82,SE,132,3.6,4.0,66,0.00,,---,0.00,VWS V14.01,2013-01-18 15:31:00,
2013-01-18 09:37:00,24.8,14.7,29.82,SE,132,4.0,4.5,65,0.00,,---,0.00,VWS V14.01,2013-01-18 15:37:00,
2013-01-18 09:43:00,25.3,14.9,29.79,SE,132,3.1,3.1,64,0.00,,---,0.00,VWS V14.01,2013-01-18 15:43:00,
2013-01-18 09:49:00,26.1,15.2,29.79,SE,132,5.8,5.8,63,0.00,,---,0.00,VWS V14.01,2013-01-18 15:49:00,
2013-01-18 09:54:00,26.4,15.2,29.79,SE,132,4.0,4.0,62,0.00,,---,0.00,VWS V14.01,2013-01-18 15:54:00,
2013-01-18 10:00:00,27.0,14.9,29.79,SE,131,4.5,5.4,60,0.00,,---,0.00,VWS V14.01,2013-01-18 16:00:00,
2013-01-18 10:05:00,27.0,14.6,29.79,SE,131,4.0,4.0,59,0.00,,---,0.00,VWS V14.01,2013-01-18 16:05:00,
2013-01-18 10:10:00,27.3,14.9,29.76,SE,132,3.6,4.9,59,0.00,,---,0.00,VWS V14.01,2013-01-18 16:10:00,
2013-01-18 10:15:00,27.9,15.0,29.76,SE,132,3.1,5.8,58,0.00,,---,0.00,VWS V14.01,2013-01-18 16:15:00,
2013-01-18 10:21:00,28.2,15.0,29.76,SE,131,0.0,2.7,57,0.00,,---,0.00,VWS V14.01,2013-01-18 16:21:00,
2013-01-18 10:26:00,28.2,15.0,29.79,SE,132,0.0,0.0,57,0.00,,---,0.00,VWS V14.01,2013-01-18 16:26:00,
2013-01-18 10:31:00,27.5,13.9,29.79,SE,132,2.7,4.0,56,0.00,,---,0.00,VWS V14.01,2013-01-18 16:31:00,
2013-01-18 10:36:00,26.6,13.4,29.79,SE,132,0.0,2.7,57,0.00,,---,0.00,VWS V14.01,2013-01-18 16:36:00,
2013-01-18 10:41:00,26.2,13.5,29.76,SE,131,0.0,2.7,58,0.00,,---,0.00,VWS V14.01,2013-01-18 16:41:00,
2013-01-18 10:46:00,26.1,13.3,29.76,SE,131,2.7,4.0,58,0.00,,---,0.00,VWS V14.01,2013-01-18 16:46:00,
2013-01-18 10:52:00,26.4,14.1,29.76,SE,131,3.6,3.6,59,0.00,,---,0.00,VWS V14.01,2013-01-18 16:52:00,
2013-01-18 10:57:00,26.8,14.4,29.76,SE,131,0.0,3.1,59,0.00,,---,0.00,VWS V14.01,2013-01-18 16:57:00,
2013-01-18 11:02:00,27.1,15.1,29.76,SE,132,2.7,3.1,60,0.00,,---,0.00,VWS V14.01,2013-01-18 17:02:00,
2013-01-18 11:07:00,27.7,15.6,29.76,SE,132,0.0,2.2,60,0.00,,---,0.00,VWS V14.01,2013-01-18 17:07:00,
2013-01-18 11:13:00,28.4,16.3,29.76,SE,131,0.0,0.0,60,0.00,,---,0.00,VWS V14.01,2013-01-18 17:13:00,
2013-01-18 11:18:00,28.9,16.4,29.76,SE,131,0.0,0.0,59,0.00,,---,0.00,VWS V14.01,2013-01-18 17:18:00,
2013-01-18 11:24:00,29.5,16.1,29.76,SE,132,0.0,0.0,57,0.00,,---,0.00,VWS V14.01,2013-01-18 17:24:00,
2013-01-18 11:29:00,29.7,16.7,29.76,SE,131,0.0,0.0,58,0.00,,---,0.00,VWS V14.01,2013-01-18 17:29:00,
2013-01-18 11:35:00,30.4,16.6,29.76,SE,132,0.0,0.0,56,0.00,,---,0.00,VWS V14.01,2013-01-18 17:35:00,
2013-01-18 11:40:00,30.6,16.3,29.76,SE,132,0.0,0.0,55,0.00,,---,0.00,VWS V14.01,2013-01-18 17:40:00,
2013-01-18 11:46:00,31.1,16.4,29.76,SE,131,0.0,0.0,54,0.00,,---,0.00,VWS V14.01,2013-01-18 17:46:00,
2013-01-18 11:52:00,31.3,16.6,29.76,SE,131,0.0,0.0,54,0.00,,---,0.00,VWS V14.01,2013-01-18 17:52:00,
2013-01-18 11:57:00,31.8,17.5,29.73,SE,131,0.0,0.0,55,0.00,,---,0.00,VWS V14.01,2013-01-18 17:57:00,
2013-01-18 12:03:00,32.7,17.9,29.73,SE,131,0.0,0.0,54,0.00,,---,0.00,VWS V14.01,2013-01-18 18:03:00,
2013-01-18 12:09:00,32.2,17.0,29.73,SE,131,0.0,0.0,53,0.00,,---,0.00,VWS V14.01,2013-01-18 18:09:00,
2013-01-18 12:14:00,32.5,17.8,29.73,SE,131,0.0,0.0,54,0.00,,---,0.00,VWS V14.01,2013-01-18 18:14:00,
2013-01-18 12:20:00,33.1,17.8,29.73,SE,132,0.0,0.0,53,0.00,,---,0.00,VWS V14.01,2013-01-18 18:20:00,
2013-01-18 12:25:00,33.8,18.5,29.73,SE,132,0.0,0.0,53,0.00,,---,0.00,VWS V14.01,2013-01-18 18:25:00,
2013-01-18 12:31:00,35.4,20.0,29.73,SE,131,0.0,0.0,53,0.00,,---,0.00,VWS V14.01,2013-01-18 18:31:00,
2013-01-18 12:36:00,36.7,20.7,29.73,SE,132,0.0,0.0,52,0.00,,---,0.00,VWS V14.01,2013-01-18 18:36:00,
2013-01-18 12:42:00,37.4,20.5,29.70,SE,131,0.0,0.0,50,0.00,,---,0.00,VWS V14.01,2013-01-18 18:42:00,
2013-01-18 12:48:00,37.8,20.3,29.70,SE,131,3.6,4.0,49,0.00,,---,0.00,VWS V14.01,2013-01-18 18:48:00,
2013-01-18 12:53:00,37.4,19.5,29.70,SE,131,4.0,4.0,48,0.00,,---,0.00,VWS V14.01,2013-01-18 18:53:00,
2013-01-18 12:59:00,37.4,19.5,29.70,SE,132,3.6,4.5,48,0.00,,---,0.00,VWS V14.01,2013-01-18 18:59:00,
2013-01-18 13:05:00,37.4,19.0,29.70,SE,131,0.0,0.0,47,0.00,,---,0.00,VWS V14.01,2013-01-18 19:05:00,
2013-01-18 13:10:00,37.8,19.9,29.70,SE,132,0.0,0.0,48,0.00,,---,0.00,VWS V14.01,2013-01-18 19:10:00,
2013-01-18 13:15:00,38.1,20.2,29.70,SE,131,0.0,0.0,48,0.00,,---,0.00,VWS V14.01,2013-01-18 19:15:00,
2013-01-18 13:20:00,38.3,19.9,29.70,SE,131,0.0,0.0,47,0.00,,---,0.00,VWS V14.01,2013-01-18 19:20:00,
2013-01-18 13:26:00,38.3,18.8,29.70,SE,132,0.0,0.0,45,0.00,,---,0.00,VWS V14.01,2013-01-18 19:26:00,
2013-01-18 13:31:00,37.6,18.2,29.70,SE,133,4.0,4.9,45,0.00,,---,0.00,VWS V14.01,2013-01-18 19:31:00,
2013-01-18 13:37:00,36.3,17.5,29.70,SE,133,0.0,0.0,46,0.00,,---,0.00,VWS V14.01,2013-01-18 19:37:00,
2013-01-18 13:42:00,36.1,18.4,29.70,SE,133,2.7,2.7,48,0.00,,---,0.00,VWS V14.01,2013-01-18 19:42:00,
2013-01-18 13:47:00,36.5,19.2,29.70,WNW,286,2.2,5.8,49,0.00,,---,0.00,VWS V14.01,2013-01-18 19:47:00,
2013-01-18 13:52:00,36.9,19.5,29.70,NW,304,3.6,4.0,49,0.00,,---,0.00,VWS V14.01,2013-01-18 19:52:00,
2013-01-18 13:58:00,37.0,19.2,29.70,West,268,2.7,4.9,48,0.00,,---,0.00,VWS V14.01,2013-01-18 19:58:00,
2013-01-18 14:03:00,37.2,18.9,29.70,NW,304,8.1,8.1,47,0.00,,---,0.00,VWS V14.01,2013-01-18 20:03:00,
2013-01-18 14:08:00,37.4,18.5,29.70,West,280,5.8,9.6,46,0.00,,---,0.00,VWS V14.01,2013-01-18 20:08:00,
2013-01-18 14:13:00,37.6,18.7,29.70,West,281,5.8,8.1,46,0.00,,---,0.00,VWS V14.01,2013-01-18 20:13:00,
2013-01-18 14:18:00,37.8,18.9,29.70,WNW,285,7.6,8.3,46,0.00,,---,0.00,VWS V14.01,2013-01-18 20:18:00,
2013-01-18 14:23:00,38.1,19.2,29.70,WNW,290,3.1,8.3,46,0.00,,---,0.00,VWS V14.01,2013-01-18 20:23:00,
2013-01-18 14:29:00,38.1,19.2,29.70,West,264,3.6,4.0,46,0.00,,---,0.00,VWS V14.01,2013-01-18 20:29:00,
2013-01-18 14:34:00,38.5,19.5,29.70,WNW,288,3.6,5.8,46,0.00,,---,0.00,VWS V14.01,2013-01-18 20:34:00,
2013-01-18 14:39:00,38.3,18.8,29.70,WNW,286,5.4,6.3,45,0.00,,---,0.00,VWS V14.01,2013-01-18 20:39:00,
2013-01-18 14:44:00,38.1,19.2,29.70,WSW,258,5.8,6.3,46,0.00,,---,0.00,VWS V14.01,2013-01-18 20:44:00,
2013-01-18 14:49:00,38.1,18.7,29.70,WSW,243,5.4,5.8,45,0.00,,---,0.00,VWS V14.01,2013-01-18 20:49:00,
2013-01-18 14:55:00,38.1,18.7,29.70,SW,234,3.1,5.4,45,0.00,,---,0.00,VWS V14.01,2013-01-18 20:55:00,
2013-01-18 15:01:00,37.6,18.2,29.70,West,270,3.1,5.4,45,0.00,,---,0.00,VWS V14.01,2013-01-18 21:01:00,
2013-01-18 15:06:00,37.2,18.4,29.70,West,261,7.6,7.6,46,0.00,,---,0.00,VWS V14.01,2013-01-18 21:06:00,
2013-01-18 15:12:00,36.9,18.5,29.70,WSW,239,4.0,4.9,47,0.00,,---,0.00,VWS V14.01,2013-01-18 21:12:00,
2013-01-18 15:17:00,36.9,19.0,29.70,WSW,237,6.3,6.3,48,0.00,,---,0.00,VWS V14.01,2013-01-18 21:17:00,
2013-01-18 15:22:00,36.7,18.4,29.70,West,268,4.0,6.3,47,0.00,,---,0.00,VWS V14.01,2013-01-18 21:22:00,
2013-01-18 15:27:00,35.8,18.0,29.70,SSW,213,5.8,6.7,48,0.00,,---,0.00,VWS V14.01,2013-01-18 21:27:00,
2013-01-18 15:33:00,34.9,18.1,29.70,WSW,253,6.3,8.1,50,0.00,,---,0.00,VWS V14.01,2013-01-18 21:33:00,
2013-01-18 15:38:00,34.3,17.6,29.70,West,260,4.9,6.3,50,0.00,,---,0.00,VWS V14.01,2013-01-18 21:38:00,
2013-01-18 15:43:00,33.8,17.6,29.70,WSW,256,3.1,5.4,51,0.00,,---,0.00,VWS V14.01,2013-01-18 21:43:00,
2013-01-18 15:48:00,33.3,17.5,29.70,West,260,3.6,4.0,52,0.00,,---,0.00,VWS V14.01,2013-01-18 21:48:00,
2013-01-18 15:53:00,32.7,17.0,29.70,SW,236,2.7,2.7,52,0.00,,---,0.00,VWS V14.01,2013-01-18 21:53:00,
2013-01-18 15:58:00,32.5,16.9,29.70,WSW,252,3.1,6.3,52,0.00,,---,0.00,VWS V14.01,2013-01-18 21:58:00,
2013-01-18 16:04:00,32.2,17.0,29.70,West,275,4.9,6.3,53,0.00,,---,0.00,VWS V14.01,2013-01-18 22:04:00,
2013-01-18 16:09:00,32.2,17.4,29.73,West,281,6.7,6.7,54,0.00,,---,0.00,VWS V14.01,2013-01-18 22:09:00,
2013-01-18 16:14:00,32.5,18.2,29.73,WNW,283,0.0,5.4,55,0.00,,---,0.00,VWS V14.01,2013-01-18 22:14:00,
2013-01-18 16:19:00,32.7,17.9,29.73,WNW,283,5.4,8.3,54,0.00,,---,0.00,VWS V14.01,2013-01-18 22:19:00,
2013-01-18 16:24:00,32.5,17.8,29.73,West,274,3.6,6.3,54,0.00,,---,0.00,VWS V14.01,2013-01-18 22:24:00,
2013-01-18 16:30:00,32.5,17.8,29.73,West,281,6.3,6.3,54,0.00,,---,0.00,VWS V14.01,2013-01-18 22:30:00,
2013-01-18 16:36:00,32.4,17.6,29.73,WNW,286,4.0,7.6,54,0.00,,---,0.00,VWS V14.01,2013-01-18 22:36:00,
2013-01-18 16:41:00,32.0,17.2,29.73,WNW,285,4.9,6.3,54,0.00,,---,0.00,VWS V14.01,2013-01-18 22:41:00,
2013-01-18 16:46:00,31.6,17.3,29.73,WNW,290,4.0,4.0,55,0.00,,---,0.00,VWS V14.01,2013-01-18 22:46:00,
2013-01-18 16:52:00,31.1,16.8,29.73,WSW,251,3.1,4.9,55,0.00,,---,0.00,VWS V14.01,2013-01-18 22:52:00,
2013-01-18 16:57:00,30.6,16.3,29.73,West,273,3.1,3.1,55,0.00,,---,0.00,VWS V14.01,2013-01-18 22:57:00,
2013-01-18 17:02:00,30.2,16.4,29.73,WSW,248,3.1,3.6,56,0.00,,---,0.00,VWS V14.01,2013-01-18 23:02:00,
2013-01-18 17:08:00,29.3,15.6,29.73,WSW,248,2.7,4.0,56,0.00,,---,0.00,VWS V14.01,2013-01-18 23:08:00,
2013-01-18 17:13:00,28.6,15.3,29.73,WSW,254,4.0,4.0,57,0.00,,---,0.00,VWS V14.01,2013-01-18 23:13:00,
2013-01-18 17:18:00,28.2,15.4,29.73,WSW,244,2.7,2.7,58,0.00,,---,0.00,VWS V14.01,2013-01-18 23:18:00,
2013-01-18 17:23:00,27.9,15.0,29.73,WSW,244,0.0,0.0,58,0.00,,---,0.00,VWS V14.01,2013-01-18 23:23:00,
2013-01-18 17:28:00,27.7,14.9,29.73,WSW,244,2.7,2.7,58,0.00,,---,0.00,VWS V14.01,2013-01-18 23:28:00,
2013-01-18 17:33:00,27.3,14.9,29.73,WSW,244,3.6,4.0,59,0.00,,---,0.00,VWS V14.01,2013-01-18 23:33:00,
2013-01-18 17:39:00,27.0,14.9,29.73,WSW,244,0.0,0.0,60,0.00,,---,0.00,VWS V14.01,2013-01-18 23:39:00,
2013-01-18 17:44:00,26.8,14.8,29.73,WSW,244,0.0,0.0,60,0.00,,---,0.00,VWS V14.01,2013-01-18 23:44:00,
2013-01-18 17:49:00,26.6,14.6,29.73,WSW,244,0.0,0.0,60,0.00,,---,0.00,VWS V14.01,2013-01-18 23:49:00,
2013-01-18 17:54:00,26.2,14.6,29.76,WSW,244,0.0,3.6,61,0.00,,---,0.00,VWS V14.01,2013-01-18 23:54:00,
2013-01-18 18:00:00,26.1,14.8,29.76,WSW,245,2.7,4.0,62,0.00,,---,0.00,VWS V14.01,2013-01-19 00:00:00,
2013-01-18 18:05:00,26.1,15.2,29.76,WSW,245,2.7,3.1,63,0.00,,---,0.00,VWS V14.01,2013-01-19 00:05:00,
2013-01-18 18:11:00,26.1,15.6,29.76,WSW,243,3.1,4.0,64,0.00,,---,0.00,VWS V14.01,2013-01-19 00:11:00,
2013-01-18 18:16:00,25.7,15.6,29.76,WSW,243,2.2,3.1,65,0.00,,---,0.00,VWS V14.01,2013-01-19 00:16:00,
2013-01-18 18:22:00,25.7,15.6,29.76,West,271,4.0,4.0,65,0.00,,---,0.00,VWS V14.01,2013-01-19 00:22:00,
2013-01-18 18:27:00,25.7,15.9,29.76,West,270,0.0,2.2,66,0.00,,---,0.00,VWS V14.01,2013-01-19 00:27:00,
2013-01-18 18:32:00,25.7,15.9,29.76,West,269,3.1,3.6,66,0.00,,---,0.00,VWS V14.01,2013-01-19 00:32:00,
2013-01-18 18:38:00,25.5,16.1,29.76,West,268,3.1,4.0,67,0.00,,---,0.00,VWS V14.01,2013-01-19 00:38:00,
2013-01-18 18:43:00,25.5,16.1,29.76,West,268,4.0,4.0,67,0.00,,---,0.00,VWS V14.01,2013-01-19 00:43:00,
2013-01-18 18:48:00,25.3,16.3,29.76,West,267,0.0,2.7,68,0.00,,---,0.00,VWS V14.01,2013-01-19 00:48:00,
2013-01-18 18:53:00,25.2,16.1,29.76,West,268,0.0,0.0,68,0.00,,---,0.00,VWS V14.01,2013-01-19 00:53:00,
2013-01-18 18:58:00,24.8,15.8,29.76,West,268,0.0,0.0,68,0.00,,---,0.00,VWS V14.01,2013-01-19 00:58:00,
2013-01-18 19:04:00,24.4,15.4,29.76,West,268,3.1,3.1,68,0.00,,---,0.00,VWS V14.01,2013-01-19 01:04:00,
2013-01-18 19:10:00,24.3,15.2,29.76,West,268,3.6,5.4,68,0.00,,---,0.00,VWS V14.01,2013-01-19 01:10:00,
2013-01-18 19:15:00,24.3,15.6,29.76,West,267,2.2,3.6,69,0.00,,---,0.00,VWS V14.01,2013-01-19 01:15:00,
2013-01-18 19:20:00,24.4,16.1,29.76,West,268,4.0,4.0,70,0.00,,---,0.00,VWS V14.01,2013-01-19 01:20:00,
2013-01-18 19:25:00,24.4,16.1,29.76,West,268,0.0,2.7,70,0.00,,---,0.00,VWS V14.01,2013-01-19 01:25:00,
2013-01-18 19:31:00,24.3,15.9,29.76,West,268,0.0,0.0,70,0.00,,---,0.00,VWS V14.01,2013-01-19 01:31:00,
2013-01-18 19:36:00,23.7,15.4,29.76,West,268,0.0,0.0,70,0.00,,---,0.00,VWS V14.01,2013-01-19 01:36:00,
2013-01-18 19:41:00,23.5,15.5,29.76,West,268,0.0,0.0,71,0.00,,---,0.00,VWS V14.01,2013-01-19 01:41:00,
2013-01-18 19:46:00,23.4,15.4,29.76,West,268,0.0,0.0,71,0.00,,---,0.00,VWS V14.01,2013-01-19 01:46:00,
2013-01-18 19:51:00,23.2,15.2,29.76,West,268,0.0,0.0,71,0.00,,---,0.00,VWS V14.01,2013-01-19 01:51:00,
2013-01-18 19:56:00,23.0,15.3,29.76,WSW,241,3.1,4.9,72,0.00,,---,0.00,VWS V14.01,2013-01-19 01:56:00,
2013-01-18 20:02:00,23.0,15.3,29.76,WSW,249,3.1,4.0,72,0.00,,---,0.00,VWS V14.01,2013-01-19 02:02:00,
2013-01-18 20:07:00,23.2,15.5,29.76,WSW,246,0.0,3.1,72,0.00,,---,0.00,VWS V14.01,2013-01-19 02:07:00,
2013-01-18 20:13:00,23.5,16.2,29.76,WSW,246,0.0,0.0,73,0.00,,---,0.00,VWS V14.01,2013-01-19 02:13:00,
2013-01-18 20:19:00,24.1,16.7,29.76,SW,236,2.7,2.7,73,0.00,,---,0.00,VWS V14.01,2013-01-19 02:19:00,
2013-01-18 20:24:00,24.3,16.9,29.76,West,261,2.7,4.0,73,0.00,,---,0.00,VWS V14.01,2013-01-19 02:24:00,
2013-01-18 20:30:00,24.4,17.4,29.76,West,259,2.7,4.9,74,0.00,,---,0.00,VWS V14.01,2013-01-19 02:30:00,
2013-01-18 20:35:00,24.6,17.5,29.76,WSW,258,0.0,4.0,74,0.00,,---,0.00,VWS V14.01,2013-01-19 02:35:00,
2013-01-18 20:41:00,24.8,18.0,29.76,West,281,3.6,3.6,75,0.00,,---,0.00,VWS V14.01,2013-01-19 02:41:00,
2013-01-18 20:47:00,25.0,17.9,29.76,West,261,0.0,2.7,74,0.00,,---,0.00,VWS V14.01,2013-01-19 02:47:00,
2013-01-18 20:52:00,24.8,18.0,29.76,WSW,253,0.0,0.0,75,0.00,,---,0.00,VWS V14.01,2013-01-19 02:52:00,
2013-01-18 20:58:00,24.6,17.5,29.73,WSW,237,0.0,0.0,74,0.00,,---,0.00,VWS V14.01,2013-01-19 02:58:00,
2013-01-18 21:03:00,24.4,17.4,29.73,West,262,2.7,3.6,74,0.00,,---,0.00,VWS V14.01,2013-01-19 03:03:00,
2013-01-18 21:08:00,24.4,17.4,29.76,WSW,255,0.0,0.0,74,0.00,,---,0.00,VWS V14.01,2013-01-19 03:08:00,
2013-01-18 21:13:00,24.4,17.4,29.76,SW,233,3.1,3.1,74,0.00,,---,0.00,VWS V14.01,2013-01-19 03:13:00,
2013-01-18 21:18:00,24.3,17.2,29.76,SW,236,3.1,4.0,74,0.00,,---,0.00,VWS V14.01,2013-01-19 03:18:00,
2013-01-18 21:24:00,23.9,16.8,29.73,WSW,240,3.1,4.0,74,0.00,,---,0.00,VWS V14.01,2013-01-19 03:24:00,
2013-01-18 21:30:00,23.9,16.8,29.73,West,265,4.0,6.3,74,0.00,,---,0.00,VWS V14.01,2013-01-19 03:30:00,
2013-01-18 21:35:00,23.9,16.8,29.73,West,271,6.3,6.3,74,0.00,,---,0.00,VWS V14.01,2013-01-19 03:35:00,
2013-01-18 21:40:00,24.3,17.5,29.76,West,268,6.3,6.3,75,0.00,,---,0.00,VWS V14.01,2013-01-19 03:40:00,
2013-01-18 21:45:00,24.6,18.1,29.76,West,261,5.4,8.3,76,0.00,,---,0.00,VWS V14.01,2013-01-19 03:45:00,
2013-01-18 21:51:00,24.8,18.6,29.76,WSW,243,4.0,4.0,77,0.00,,---,0.00,VWS V14.01,2013-01-19 03:51:00,
2013-01-18 21:56:00,24.6,18.5,29.76,WSW,256,5.4,5.4,77,0.00,,---,0.00,VWS V14.01,2013-01-19 03:56:00,
2013-01-18 22:02:00,24.4,18.3,29.76,WSW,249,3.1,4.9,77,0.00,,---,0.00,VWS V14.01,2013-01-19 04:02:00,
2013-01-18 22:08:00,24.6,18.5,29.76,West,261,4.9,5.4,77,0.00,,---,0.00,VWS V14.01,2013-01-19 04:08:00,
2013-01-18 22:13:00,24.8,18.6,29.76,WSW,258,5.4,6.3,77,0.00,,---,0.00,VWS V14.01,2013-01-19 04:13:00,
2013-01-18 22:19:00,25.2,19.3,29.76,WSW,256,3.6,5.8,78,0.00,,---,0.00,VWS V14.01,2013-01-19 04:19:00,
2013-01-18 22:24:00,25.3,19.5,29.76,WSW,256,0.0,3.6,78,0.00,,---,0.00,VWS V14.01,2013-01-19 04:24:00,
2013-01-18 22:30:00,25.3,19.5,29.76,WSW,253,2.7,4.0,78,0.00,,---,0.00,VWS V14.01,2013-01-19 04:30:00,
2013-01-18 22:36:00,25.2,19.0,29.76,WSW,246,4.5,4.5,77,0.00,,---,0.00,VWS V14.01,2013-01-19 04:36:00,
2013-01-18 22:41:00,25.2,19.0,29.76,WSW,246,3.1,3.1,77,0.00,,---,0.00,VWS V14.01,2013-01-19 04:41:00,
2013-01-18 22:46:00,25.0,18.8,29.76,WSW,246,3.1,4.9,77,0.00,,---,0.00,VWS V14.01,2013-01-19 04:46:00,
2013-01-18 22:51:00,25.0,18.8,29.76,WSW,247,4.0,4.0,77,0.00,,---,0.00,VWS V14.01,2013-01-19 04:51:00,
2013-01-18 22:57:00,25.3,19.1,29.76,WSW,248,3.6,4.0,77,0.00,,---,0.00,VWS V14.01,2013-01-19 04:57:00,
2013-01-18 23:01:00,25.3,19.1,29.76,WSW,247,4.0,4.0,77,0.00,,---,0.00,VWS V14.01,2013-01-19 05:01:00,
2013-01-18 23:02:00,25.3,19.1,29.76,WSW,247,4.0,4.0,77,0.00,,---,0.00,VWS V14.01,2013-01-19 05:02:00,
2013-01-18 23:04:00,25.2,19.0,29.76,WSW,247,3.1,5.4,77,0.00,,---,0.00,VWS V14.01,2013-01-19 05:04:00,
2013-01-18 23:09:00,25.3,19.1,29.76,WSW,247,0.0,3.1,77,0.00,,---,0.00,VWS V14.01,2013-01-19 05:09:00,
2013-01-18 23:15:00,25.3,19.1,29.76,WSW,247,0.0,0.0,77,0.00,,---,0.00,VWS V14.01,2013-01-19 05:15:00,
2013-01-18 23:16:00,25.3,19.1,29.76,WSW,247,0.0,0.0,77,0.00,,---,0.00,VWS V14.01,2013-01-19 05:16:00,
2013-01-18 23:22:00,25.3,19.1,29.76,WSW,247,0.0,0.0,77,0.00,,---,0.00,VWS V14.01,2013-01-19 05:22:00,
2013-01-18 23:27:00,25.3,19.1,29.76,WSW,247,0.0,0.0,77,0.00,,---,0.00,VWS V14.01,2013-01-19 05:27:00,
2013-01-18 23:32:00,25.3,19.1,29.76,WSW,247,0.0,0.0,77,0.00,,---,0.00,VWS V14.01,2013-01-19 05:32:00,
2013-01-18 23:38:00,25.2,19.0,29.76,WSW,247,0.0,0.0,77,0.00,,---,0.00,VWS V14.01,2013-01-19 05:38:00,
2013-01-18 23:44:00,25.0,18.8,29.76,WSW,247,0.0,0.0,77,0.00,,---,0.00,VWS V14.01,2013-01-19 05:44:00,
2013-01-18 23:50:00,25.0,18.8,29.76,WSW,247,0.0,0.0,77,0.00,,---,0.00,VWS V14.01,2013-01-19 05:50:00,
2013-01-18 23:55:00,25.0,18.8,29.76,WSW,247,0.0,0.0,77,0.00,,---,0.00,VWS V14.01,2013-01-19 05:55:00,